User: anonymous   Login
Location: Unspecified
(0.0000°N, 0.0000°E)
Time: 18:34:15
(UTC+00:00)
Language:

Optus B1 - Orbit

View from above orbital plane
View from above orbital plane
View from above satellite
View from above satellite

Ground track
Ground track

The orbit data is extracted from the following two-line orbital elements,

1 22087U 92054A   19053.74138696 -.00000207 +00000-0 +00000-0 0  9991
2 22087 009.5229 041.4243 0006588 010.5128 181.9680 00.99208384108207
Epoch (UTC): 22 February 2019 17:47:35
Eccentricity: 0.0006588
inclination: 9.5229°
perigee height: 36059 km
apogee height: 36115 km
right ascension of ascending node: 41.4243°
argument of perigee: 10.5128°
revolutions per day: 0.99208384
mean anomaly at epoch: 181.9680°
orbit number at epoch: 10820

The dashed part of the orbit path shows where the satellite is in the earth's shadow,  

DLR